Tracking 19224 objects as of 23-Jul-2018
HD Live streaming from Space Station
objects crossing your sky now

ARIANE 5 DEB (SYLDA)

Track ARIANE 5 DEB (SYLDA) now!
10-day predictions


NORAD ID: 38781
Int'l Code: 2012-051D
Perigee: 304.5 km
Apogee: 16,566.2 km
Inclination: 6.3 °
Period: 298.8 minutes
Semi major axis: 14806 km
RCS: 10.0393 m2 (large)
Launch date: September 28, 2012
Source: France (FR)
Launch site: FRENCH GUIANA (FRGUI)

Note: This is SATELLITE DEBRIS
aabbcc
Your satellite tracking list
Your tracking list is empty




NASA's NSSDC Master Catalog

Two Line Element Set (TLE):
1 38781U 12051D   18202.99096956  .00004500  00000-0  87480-3 0  9991
2 38781   6.3399 134.1048 5491459 184.0005 168.4932  4.81870793 85479
Source of the keplerian elements: AFSPC